Regional Weather Roundup
Issued by NWS

Home | Current Version | Previous Version | Text Only | Print | Product List | Glossary Off
Versions: 1 2 3 4 5 6 7 8 9 10 11 12 13 14 15 16 17 18 19 20 21 22 23 24 25 26 27 28 29 30 31 32 33 34 35 36 37 38 39 40 41 42 43 44 45 46 47 48 49 50

000
ASUS43 KDMX 230807
RWRIA

WEATHER ROUNDUP FOR IOWA
NATIONAL WEATHER SERVICE DES MOINES IA
300 AM CDT SAT AUG 23 2014

NOTE: "FAIR" INDICATES FEW OR NO CLOUDS BELOW 12,000 FEET WITH NO
SIGNIFICANT WEATHER AND/OR OBSTRUCTIONS TO VISIBILITY.

* - THESE STATIONS ARE NOT NWS STATIONS...THUS NOT UNDER NWS
QUALITY CONTROL.  THEY ALSO DO NOT REPORT WEATHER SUCH
AS PRECIPITATION OR FOG.

IAZ001>003-012>014-020>022-031>034-043>046-230900-
   NORTHWEST IOWA

CITY           SKY/WX    TMP DP  RH WIND       PRES   REMARKS
CARROLL *      CLOUDY    70  70 100 CALM      29.92F
CHEROKEE *     CLOUDY    73  72  94 E8        29.96R
DENISON *      CLOUDY    70  70 100 N3        29.93S
LE MARS *      CLOUDY    73  72  94 SE7       29.96R
ORANGE CITY *  CLOUDY    75  70  83 E7        29.96S
SHELDON *      PTCLDY    72  70  94 E10       29.95S
SIOUX CITY     HVY RAIN  73  68  84 NW5       29.97F
SPENCER        CLOUDY    72  69  90 E8        29.96F
STORM LAKE *   CLOUDY    72  72 100 E10       29.97F
$$

IAZ055>058-069>071-079>083-090>094-230900-
   SOUTHWEST IOWA

CITY           SKY/WX    TMP DP  RH WIND       PRES   REMARKS
ATLANTIC *     HVY RAIN  73  72  94 S3G12     29.91F VSB 1
AUDUBON *      CLOUDY    75  73  94 CALM      29.93F FOG
CLARINDA *     CLOUDY    75  75 100 NE8       29.89S
COUNCIL BLFS * HVY RAIN  72  72 100 NW14G26   29.94S
CRESTON *      CLOUDY    75  75 100 S8        29.92S FOG
HARLAN  *      DRIZZLE   73  73 100 N6        29.96S
LAMONI         MOCLDY    77  75  93 SE3       29.90F
RED OAK *      CLOUDY    72  70  94 NE20      29.88F FOG
SHENANDOAH *   HVY RAIN  75  73  94 N5        29.90R
$$

IAZ047>049-059>061-072>074-084-230900-
   CENTRAL IOWA

CITY           SKY/WX    TMP DP  RH WIND       PRES   REMARKS
AMES           MOCLDY    75  74  96 E7        29.92F FOG
ANKENY *       CLOUDY    77  77 100 E8        29.90F FOG
CHARITON *     MOCLDY    77  75  94 E6        29.91F FOG
DES MOINES     FOG       77  75  93 E9        29.87F VSB 1
GRINNELL*      MOCLDY    72  70  94 E6        29.95S
KNOXVILLE *    FOG       75  75 100 E5        29.91F VSB 1/2
MARSHALLTOWN   MOCLDY    71  70  96 NE6       29.95S
PELLA *          N/A     77  77 100 E3        29.94F FOG
PERRY *          N/A     73  72  94 N3        29.90F FOG
$$

IAZ004>006-015-016-023>025-035-036-230900-
   NORTH CENTRAL IOWA

CITY           SKY/WX    TMP DP  RH WIND       PRES   REMARKS
ALGONA *       CLEAR     72  70  94 E6        29.97F FOG
CLARION *      MOCLDY    73  72  94 E7        29.96F
ESTHERVILLE    CLOUDY    68  68 100 CALM      29.97F FOG
FORT DODGE *   MOCLDY    73  72  94 NE8       29.95F
MASON CITY     MOCLDY    70  69  97 NE5       29.99S FOG
FOREST CITY *  CLEAR     70  70 100 NE5       29.98S
IOWA FALLS *   CLOUDY    75  72  88 E3        29.97S
$$

IAZ007>011-017>019-026>030-037>042-050>054-066-230900-
   NORTHEAST IOWA

CITY           SKY/WX    TMP DP  RH WIND       PRES   REMARKS
CEDAR RAPIDS   CLOUDY    74  74 100 W5        29.95S
CHARLES CITY * PTCLDY    72  70  94 NE8       29.97F
CLINTON *      PTCLDY    73  72  94 NE3       29.98R
DECORAH *      CLOUDY    72  70  94 CALM      29.97F
DUBUQUE        CLOUDY    71  71 100 CALM      29.97S
MONTICELLO *   CLOUDY    73  73 100 CALM      29.96S
OELWEIN *      CLOUDY    75  75 100 NE6       29.96F FOG
WATERLOO       CLOUDY    75  72  90 NE5       29.94S
$$

IAZ064-065-067-068-078-230900-
   EAST CENTRAL IOWA

CITY           SKY/WX    TMP DP  RH WIND       PRES   REMARKS
DAVENPORT      MOCLDY    73  72  96 SE5       29.95S
IOWA CITY      MOCLDY    75  74  96 CALM      29.95S
MT. PLEASANT * FOG       75  73  94 CALM      29.93F VSB 3/4
MUSCATINE *    MOCLDY    73  73 100 CALM      29.94S FOG
QUAD CITIES    CLOUDY    75  73  93 CALM      29.94S
$$

IAZ062-063-075>077-085>089-095>099-230900-
   SOUTHEAST IOWA

CITY           SKY/WX    TMP DP  RH WIND       PRES   REMARKS
BURLINGTON     MOCLDY    75  75 100 SE3       29.93F FOG
FAIRFIELD *    CLEAR     75  73  94 CALM      29.94S FOG
FORT MADISON * CLEAR     77  77 100 CALM      29.94F FOG
KEOKUK *       PTCLDY    75  75 100 CALM      29.92F FOG
OSKALOOSA *    MOCLDY    75  73  94 NE6       29.94S FOG
CENTERVILLE *  PTCLDY    75  75 100 E5        29.94F
OTTUMWA        CLEAR     76  74  93 E3        29.92F FOG
WASHINGTON *   CLEAR     73  73 100 CALM      29.95R FOG
$$

ABBREVIATIONS USED IN REMARKS
   TC - TEMPERATURES IN CELSIUS
  WCI - WIND CHILL INDEX
   HX - HEAT INDEX
  VSB - VISIBILITY
$$




USA.gov is the U.S. government's official web portal to all federal, state and local government web resources and services.